CW5439 Weather Reports


Display with metric or nautical units.
time (UTC)temp
F
wind
direction
speed
MPH
gust
MPH
rain 1hr
in
rain 24hr
in
rain mn
in
humidity
%
barometer
mb
20260902160205 56 83 4.0 11.0 0.04 0.14 0.14 96 1009.7
20260902155705 56 82 5.0 11.0 0.04 0.14 0.14 96 1009.8
20260902153705 56 51 5.0 10.0 0.02 0.12 0.12 96 1010.1
20260902152704 56 69 5.0 10.0 0.02 0.11 0.11 96 1010.3
20260902152206 56 50 5.0 9.0 0.02 0.11 0.11 95 1010.2
20260902151705 56 59 6.0 10.0 0.02 0.11 0.11 95 1010.3
20260902151205 56 56 5.0 10.0 0.01 0.10 0.10 95 1010.4
20260902150705 56 65 5.0 10.0 0.01 0.11 0.10 95 1010.5
20260902145705 56 44 5.0 13.0 0.02 0.11 0.10 95 1010.6
20260902145206 56 62 5.0 13.0 0.01 0.10 0.09 95 1010.6
20260902144706 56 65 6.0 13.0 0.01 0.10 0.09 95 1010.6
20260902143705 56 38 6.0 11.0 0.01 0.10 0.09 95 1010.6
20260902143205 56 94 6.0 11.0 0.01 0.11 0.09 95 1010.7
20260902142705 56 80 6.0 10.0 0.01 0.11 0.09 95 1010.8
20260902142206 56 57 6.0 10.0 0.01 0.11 0.09 95 1010.8
20260902140705 55 59 5.0 11.0 0.00 0.10 0.09 95 1011.0
20260902140205 55 57 6.0 10.0 0.00 0.11 0.09 95 1011.1
20260902135704 55 84 6.0 10.0 0.00 0.11 0.09 95 1011.1
20260902134705 55 37 6.0 12.0 0.00 0.12 0.09 95 1011.1
20260902134206 55 71 6.0 12.0 0.00 0.12 0.09 95 1011.2
20260902133704 55 61 6.0 12.0 0.00 0.13 0.09 95 1011.1
20260902133205 55 74 7.0 12.0 0.00 0.13 0.09 95 1011.2
20260902132205 55 57 7.0 12.0 0.00 0.13 0.09 95 1011.3
20260902131730 55 50 7.0 12.0 0.00 0.13 0.09 95 1011.4
20260902131205 54 76 8.0 12.0 0.00 0.13 0.09 95 1011.4
20260902130705 55 65 6.0 11.0 0.00 0.15 0.09 95 1011.4
20260902130205 55 59 6.0 10.0 0.00 0.16 0.09 95 1011.5
20260902125704 54 55 6.0 10.0 0.00 0.18 0.09 95 1011.6
20260902125205 54 57 5.0 11.0 0.00 0.19 0.09 95 1011.6
20260902124705 54 67 6.0 11.0 0.00 0.21 0.09 95 1011.6
20260902124205 54 61 7.0 12.0 0.00 0.21 0.09 95 1011.7
20260902123705 54 74 7.0 12.0 0.00 0.21 0.09 95 1011.7
20260902123207 54 59 8.0 12.0 0.00 0.21 0.09 95 1011.8
20260902122705 54 60 7.0 11.0 0.00 0.21 0.09 95 1011.8
20260902122206 54 28 7.0 11.0 0.00 0.21 0.09 95 1011.9
20260902121705 54 46 6.0 11.0 0.00 0.21 0.09 95 1011.9
20260902121206 54 56 6.0 11.0 0.00 0.21 0.09 95 1012.0
20260902120705 54 53 6.0 11.0 0.00 0.21 0.09 95 1012.1
20260902115705 53 53 6.0 12.0 0.00 0.21 0.09 95 1012.2
20260902115206 53 62 7.0 12.0 0.00 0.21 0.09 95 1012.2
20260902114705 53 70 7.0 13.0 0.00 0.21 0.09 95 1012.2
20260902114205 53 48 6.0 13.0 0.00 0.21 0.09 95 1012.3
20260902113705 53 57 6.0 13.0 0.00 0.21 0.09 95 1012.4
20260902113205 53 92 5.0 11.0 0.00 0.21 0.09 95 1012.5
20260902112706 53 79 4.0 10.0 0.00 0.21 0.09 95 1012.5
20260902112205 53 78 5.0 10.0 0.00 0.21 0.09 95 1012.5
20260902111705 53 47 5.0 10.0 0.00 0.21 0.09 95 1012.5
20260902111205 53 74 5.0 10.0 0.00 0.21 0.09 95 1012.5
20260902110704 52 70 5.0 10.0 0.01 0.21 0.09 95 1012.6
20260902110231 52 55 5.0 10.0 0.01 0.21 0.09 95 1012.6
20260902105205 52 70 4.0 8.0 0.01 0.21 0.09 95 1012.8
20260902104711 52 19 3.0 8.0 0.01 0.21 0.09 95 1012.8
20260902104205 52 47 3.0 7.0 0.01 0.21 0.09 95 1012.7
20260902103705 52 57 4.0 7.0 0.01 0.21 0.09 95 1012.7
20260902103206 52 37 4.0 7.0 0.01 0.21 0.09 95 1012.7
20260902102705 52 50 4.0 8.0 0.01 0.21 0.09 95 1012.8
20260902102205 52 45 3.0 8.0 0.01 0.21 0.09 95 1012.8
20260902101705 51 44 4.0 8.0 0.01 0.21 0.09 95 1012.6
20260902101205 51 49 4.0 6.0 0.01 0.21 0.09 95 1012.6
20260902100704 51 40 4.0 8.0 0.01 0.20 0.08 95 1012.7
20260902100205 51 37 4.0 9.0 0.02 0.20 0.08 95 1012.7
20260902095705 51 19 5.0 9.0 0.02 0.20 0.08 95 1012.8
20260902095206 51 67 4.0 9.0 0.02 0.20 0.08 95 1012.8
20260902094705 51 50 4.0 8.0 0.02 0.20 0.08 95 1012.9
20260902094205 51 59 4.0 8.0 0.03 0.20 0.08 95 1013.0
20260902093734 51 57 4.0 8.0 0.03 0.20 0.08 95 1012.9
20260902093205 51 78 4.0 8.0 0.04 0.20 0.08 95 1012.9
20260902092705 51 52 3.0 7.0 0.04 0.20 0.08 95 1013.0
20260902092205 51 57 3.0 7.0 0.05 0.20 0.08 95 1013.0
20260902091705 51 61 3.0 6.0 0.05 0.20 0.08 95 1012.9
20260902091205 51 61 3.0 6.0 0.06 0.20 0.08 95 1013.0
20260902090705 51 46 3.0 6.0 0.05 0.20 0.07 95 1013.0
20260902085705 51 71 2.0 7.0 0.04 0.20 0.06 95 1013.0
20260902085207 51 67 3.0 8.0 0.03 0.19 0.06 95 1012.9
20260902084705 51 78 4.0 8.0 0.03 0.18 0.05 95 1012.9
20260902084205 51 68 3.0 8.0 0.03 0.18 0.05 95 1012.9
20260902083224 51 60 4.0 8.0 0.02 0.17 0.04 95 1013.0
20260902082706 51 76 4.0 8.0 0.02 0.17 0.04 95 1013.0
20260902081705 52 78 2.0 5.0 0.02 0.17 0.03 96 1013.0
20260902081205 52 61 3.0 5.0 0.02 0.16 0.02 96 1013.0
20260902080705 52 42 2.0 4.0 0.02 0.16 0.02 96 1013.0
20260902080205 52 37 2.0 4.0 0.02 0.16 0.02 96 1013.0
20260902075705 53 65 2.0 4.0 0.02 0.16 0.02 96 1013.0
20260902075205 53 28 2.0 4.0 0.02 0.16 0.02 96 1012.9
20260902074705 53 60 2.0 4.0 0.02 0.15 0.02 96 1012.9
20260902074205 53 65 2.0 4.0 0.02 0.15 0.02 96 1012.9
20260902073705 53 41 2.0 3.0 0.02 0.15 0.02 96 1012.9
20260902073205 53 27 1.0 3.0 0.02 0.15 0.02 96 1012.9
20260902072206 53 71 1.0 3.0 0.01 0.14 0.01 96 1012.8
20260902071705 52 39 1.0 3.0 0.01 0.14 0.01 96 1012.8
20260902071205 52 77 1.0 2.0 0.01 0.14 0.01 96 1012.8
20260902070705 52 22 0.0 2.0 0.01 0.14 0.01 96 1012.8
20260902070205 52 22 0.0 2.0 0.00 0.13 0.00 96 1012.8
20260902065707 52 22 1.0 2.0 0.00 0.13 0.00 96 1012.8
20260902064205 52 22 1.0 2.0 0.00 0.13 0.00 96 1012.8
20260902063705 52 22 1.0 2.0 0.00 0.13 0.00 96 1012.8
20260902063204 53 22 0.0 3.0 0.00 0.13 0.00 96 1012.7
20260902062706 53 22 1.0 3.0 0.00 0.13 0.00 96 1012.7
20260902062206 52 22 1.0 3.0 0.00 0.13 0.00 96 1012.8
20260902061706 52 22 0.0 1.0 0.00 0.13 0.00 96 1012.7
20260902061205 52 340 0.0 0.0 0.00 0.13 0.00 96 1012.8
20260902060706 52 340 0.0 0.0 0.00 0.13 0.00 96 1012.8
20260902060205 52 340 0.0 0.0 0.00 0.13 0.00 96 1012.7
20260902055705 52 340 0.0 0.0 0.00 0.13 0.00 96 1012.7
20260902054706 52 340 0.0 1.0 0.00 0.13 0.00 96 1012.7
20260902054208 52 340 0.0 1.0 0.00 0.13 0.00 96 1012.7
20260902052705 52 340 0.0 1.0 0.00 0.13 0.00 96 1012.7
20260902052205 52 340 0.0 0.0 0.00 0.13 0.00 96 1012.7
20260902051706 52 340 0.0 0.0 0.00 0.13 0.00 96 1012.7
20260902051207 52 340 0.0 0.0 0.00 0.13 0.00 96 1012.8
20260902050704 52 340 0.0 0.0 0.00 0.13 0.00 96 1012.8
20260902050205 52 340 0.0 0.0 0.00 0.13 0.00 96 1012.9
20260902045705 52 340 0.0 3.0 0.00 0.13 0.00 96 1012.9
20260902044205 52 219 1.0 3.0 0.00 0.13 0.00 96 1012.9
20260902043705 52 215 1.0 3.0 0.00 0.13 0.00 96 1012.8
20260902043205 52 205 1.0 3.0 0.00 0.13 0.00 96 1012.8
20260902042705 52 186 1.0 3.0 0.00 0.13 0.00 96 1012.9
20260902041705 52 196 1.0 3.0 0.00 0.13 0.00 96 1012.9
20260902041205 52 187 1.0 2.0 0.00 0.13 0.00 96 1012.9
20260902040720 52 269 0.0 1.0 0.00 0.13 0.00 96 1012.9
20260902040206 52 269 0.0 1.0 0.00 0.13 0.00 96 1012.9
20260902035705 52 270 0.0 1.0 0.00 0.13 0.00 96 1012.9
20260902035206 51 269 0.0 1.0 0.00 0.13 0.00 96 1012.9
20260902034705 51 269 0.0 2.0 0.00 0.13 0.00 96 1012.9
20260902034205 51 269 0.0 2.0 0.00 0.13 0.00 96 1012.9
20260902033705 51 270 0.0 2.0 0.00 0.13 0.00 96 1012.9
20260902033204 51 269 0.0 1.0 0.00 0.13 0.00 96 1012.8
20260902032732 51 270 0.0 1.0 0.00 0.13 0.00 96 1012.9
20260902032207 51 270 0.0 1.0 0.00 0.13 0.00 96 1012.9
20260902031705 51 251 0.0 1.0 0.00 0.13 0.00 96 1012.9
20260902031205 51 242 0.0 2.0 0.00 0.13 0.00 95 1012.8
20260902030705 51 236 0.0 2.0 0.00 0.13 0.00 95 1012.7
20260902030205 51 225 0.0 2.0 0.00 0.13 0.00 95 1012.7
20260902025705 51 231 0.0 1.0 0.00 0.13 0.00 95 1012.8
20260902025205 51 218 0.0 3.0 0.00 0.13 0.00 95 1012.8
20260902024705 51 215 0.0 3.0 0.00 0.13 0.00 95 1012.7
20260902024205 51 209 0.0 3.0 0.00 0.13 0.00 95 1012.8
20260902023705 51 222 0.0 2.0 0.00 0.13 0.00 95 1012.8
20260902022728 51 250 0.0 2.0 0.00 0.13 0.00 95 1013.0
20260902022205 51 227 0.0 2.0 0.00 0.13 0.00 95 1012.9
20260902021728 51 218 0.0 2.0 0.00 0.13 0.00 95 1013.0
20260902021205 51 232 0.0 2.0 0.00 0.13 0.00 95 1013.0
20260902020720 52 246 0.0 2.0 0.00 0.13 0.00 95 1013.0
20260902020205 52 285 0.0 1.0 0.00 0.13 0.00 95 1013.0
20260902015705 52 254 0.0 1.0 0.00 0.13 0.00 95 1013.0
20260902015208 52 290 0.0 4.0 0.00 0.13 0.00 95 1012.9
20260902014705 52 290 1.0 6.0 0.00 0.13 0.00 95 1013.0
20260902013706 52 221 3.0 7.0 0.00 0.13 0.00 95 1013.0
20260902013205 52 221 3.0 6.0 0.00 0.13 0.00 95 1013.0
20260902012705 52 224 2.0 6.0 0.00 0.13 0.00 95 1012.9
20260902011726 53 212 1.0 6.0 0.00 0.13 0.00 95 1012.9
20260902011205 53 234 2.0 7.0 0.00 0.13 0.00 95 1012.9
20260902010705 53 215 3.0 7.0 0.00 0.13 0.00 95 1012.8
20260902010205 53 267 3.0 7.0 0.00 0.13 0.00 95 1012.8
20260902005705 53 242 3.0 5.0 0.00 0.13 0.00 95 1012.8
20260902005205 53 216 2.0 6.0 0.00 0.13 0.00 95 1012.7
20260902004705 53 215 2.0 6.0 0.00 0.13 0.00 95 1012.8
20260902004206 53 228 3.0 6.0 0.00 0.13 0.00 95 1012.7
20260902003705 53 225 3.0 7.0 0.00 0.13 0.00 95 1012.7
20260902002206 53 275 2.0 5.0 0.00 0.13 0.00 95 1012.8
20260902001705 53 211 1.0 5.0 0.00 0.13 0.00 95 1012.9
20260902001206 53 245 0.0 4.0 0.00 0.13 0.00 95 1012.8
20260902000705 53 241 0.0 1.0 0.00 0.13 0.00 95 1012.9
20260901235705 53 252 0.0 2.0 0.00 0.13 0.00 95 1012.8
20260901234728 54 236 0.0 4.0 0.00 0.13 0.00 95 1012.7
20260901234204 54 182 1.0 4.0 0.00 0.13 0.00 95 1012.8
20260901233705 54 270 1.0 6.0 0.00 0.13 0.00 95 1012.7
20260901233205 54 219 2.0 6.0 0.00 0.13 0.00 95 1012.7
20260901232709 54 216 2.0 6.0 0.00 0.13 0.00 95 1012.7
20260901232206 54 217 2.0 5.0 0.00 0.13 0.00 95 1012.7
20260901231705 54 209 1.0 5.0 0.00 0.13 0.00 95 1012.8
20260901231205 54 244 1.0 4.0 0.00 0.13 0.00 95 1012.8
20260901230704 54 223 1.0 4.0 0.00 0.13 0.00 95 1012.8
20260901230204 54 247 1.0 5.0 0.00 0.13 0.13 95 1012.7
20260901225704 54 246 1.0 5.0 0.00 0.13 0.13 95 1012.7
20260901225208 54 242 1.0 6.0 0.00 0.13 0.13 95 1012.8
20260901224705 54 199 1.0 6.0 0.00 0.13 0.13 95 1012.8
20260901224205 54 224 1.0 6.0 0.00 0.13 0.13 95 1012.8
20260901223705 54 190 1.0 6.0 0.00 0.13 0.13 95 1012.8
20260901223205 54 219 1.0 6.0 0.00 0.13 0.13 95 1012.7
20260901222705 54 208 1.0 5.0 0.00 0.13 0.13 95 1012.7
20260901222208 54 285 1.0 8.0 0.00 0.13 0.13 94 1012.7
20260901221205 54 219 4.0 8.0 0.00 0.13 0.13 94 1012.5
20260901220704 54 223 4.0 9.0 0.00 0.13 0.13 94 1012.4
20260901220205 54 224 4.0 9.0 0.00 0.13 0.13 94 1012.4
20260901215705 54 225 4.0 9.0 0.00 0.13 0.13 94 1012.4
20260901215205 54 244 3.0 8.0 0.00 0.13 0.13 94 1012.3
20260901214705 54 223 3.0 7.0 0.00 0.13 0.13 94 1012.3
20260901214211 54 223 2.0 7.0 0.00 0.13 0.13 94 1012.4
20260901213705 54 228 1.0 4.0 0.00 0.13 0.13 94 1012.3
20260901212705 54 201 1.0 6.0 0.00 0.13 0.13 94 1012.3
20260901212205 54 239 1.0 6.0 0.00 0.13 0.13 94 1012.4
20260901210704 55 219 2.0 6.0 0.00 0.13 0.13 94 1012.3
20260901210207 55 253 1.0 6.0 0.00 0.13 0.13 94 1012.2
20260901205705 55 226 1.0 10.0 0.00 0.13 0.13 94 1012.2
20260901205205 55 249 2.0 10.0 0.00 0.13 0.13 94 1012.2
20260901204705 55 263 3.0 8.0 0.00 0.13 0.13 94 1012.3
20260901204205 55 283 3.0 9.0 0.00 0.13 0.13 94 1012.2
20260901203705 55 271 3.0 11.0 0.00 0.13 0.13 94 1012.2
20260901203205 56 288 4.0 11.0 0.00 0.13 0.13 94 1012.3
20260901202205 56 254 1.0 6.0 0.00 0.13 0.13 94 1012.2
20260901201705 56 239 1.0 7.0 0.00 0.13 0.13 94 1012.2
20260901201205 56 296 2.0 8.0 0.00 0.13 0.13 94 1012.2
20260901200705 56 236 2.0 11.0 0.00 0.13 0.13 94 1012.1
20260901200206 56 257 2.0 11.0 0.00 0.13 0.13 93 1012.0
20260901195705 56 271 2.0 11.0 0.00 0.13 0.13 93 1012.0
20260901195205 56 259 3.0 10.0 0.00 0.13 0.13 93 1011.9
20260901194705 56 238 3.0 10.0 0.00 0.13 0.13 93 1011.9
20260901194207 56 223 3.0 10.0 0.00 0.13 0.13 93 1011.8
20260901193705 56 225 3.0 10.0 0.00 0.13 0.13 93 1011.9
20260901193205 56 184 3.0 10.0 0.00 0.13 0.13 93 1011.8
20260901192705 56 206 3.0 12.0 0.00 0.13 0.13 93 1011.7
20260901192205 56 280 3.0 14.0 0.00 0.13 0.13 93 1011.6
20260901191705 56 175 4.0 14.0 0.00 0.13 0.13 93 1011.6
20260901191205 56 223 5.0 13.0 0.00 0.13 0.13 93 1011.6
20260901190704 57 262 5.0 14.0 0.00 0.13 0.13 93 1011.6
20260901190205 57 229 6.0 14.0 0.00 0.13 0.13 93 1011.5
20260901185704 57 207 6.0 14.0 0.00 0.13 0.13 93 1011.5
20260901185206 57 240 5.0 15.0 0.00 0.13 0.13 93 1011.5
20260901184707 57 246 5.0 15.0 0.00 0.13 0.13 93 1011.4
20260901184206 57 217 5.0 14.0 0.00 0.13 0.13 93 1011.3
20260901183705 58 225 4.0 15.0 0.00 0.13 0.13 93 1011.2
20260901183205 58 272 5.0 15.0 0.00 0.13 0.13 93 1011.3
20260901182705 58 215 4.0 15.0 0.00 0.13 0.13 93 1011.3
20260901182206 58 223 4.0 13.0 0.00 0.13 0.13 93 1011.2
20260901181705 58 194 4.0 13.0 0.00 0.13 0.13 93 1011.2
20260901181205 58 236 3.0 12.0 0.00 0.13 0.13 93 1011.1
20260901180705 58 270 4.0 12.0 0.00 0.13 0.13 93 1011.1
20260901180207 58 213 4.0 14.0 0.00 0.13 0.13 93 1011.2
20260901175705 58 247 4.0 14.0 0.00 0.13 0.13 93 1011.1
20260901174705 58 292 5.0 11.0 0.00 0.13 0.13 93 1011.0
20260901174205 58 271 4.0 11.0 0.00 0.13 0.13 93 1011.0
20260901173705 58 247 5.0 11.0 0.00 0.13 0.13 93 1011.1
20260901173205 58 261 5.0 11.0 0.00 0.13 0.13 93 1011.0
20260901172704 58 228 4.0 12.0 0.00 0.13 0.13 93 1011.1
20260901172205 59 206 4.0 12.0 0.00 0.13 0.13 94 1011.0
20260901171705 59 240 5.0 16.0 0.00 0.13 0.13 94 1011.0
20260901171205 59 251 5.0 16.0 0.00 0.13 0.13 94 1011.1
20260901170705 59 243 3.0 16.0 0.00 0.13 0.13 94 1011.1
20260901165705 60 216 4.0 11.0 0.00 0.13 0.13 94 1010.9
20260901165205 60 273 4.0 11.0 0.00 0.13 0.13 94 1010.9
20260901164706 60 281 3.0 11.0 0.00 0.13 0.13 95 1011.0
20260901164205 59 269 3.0 12.0 0.00 0.13 0.13 94 1010.9
20260901163704 59 281 4.0 12.0 0.00 0.13 0.13 94 1010.8
20260901163231 60 259 4.0 12.0 0.00 0.13 0.13 94 1010.8
20260901162705 60 261 3.0 12.0 0.00 0.13 0.13 94 1010.8
20260901162207 60 217 3.0 9.0 0.00 0.13 0.13 94 1010.7
20260901161705 60 288 4.0 12.0 0.00 0.13 0.13 95 1010.7
20260901161205 60 252 5.0 15.0 0.00 0.13 0.13 94 1010.7